Volver al catálogo

NOAA 16 DEB

ActivoPO
NORAD 41379·DEBRIS·🇺🇸 United States

Lanzado Sep 21, 2000 desde Vandenberg Space Force Base

Loading…

Próximos Pases (próximas 24 horas)

TLE

ActualizadoSource: Space-Track

Época: Sep 14, 2026, 04:35 UTC

1 41379U 00055JY  26257.19137019  .00004677  00000-0  12326-2 0  9997
2 41379  98.8486  46.7818 0023984 172.5466 187.6087 14.49331273555302

Sigue NOAA 16 DEB en tiempo real con AllMySat

Download on the App Store